Radiation Dose at Monitoring Post of Fukushima Daini Nuclear Power Station
Date,Time,MP-1(microSv/h),MP-2(microSv/h),MP-3(microSv/h),MP-4(microSv/h),MP-5(microSv/h),MP-6(microSv/h),MP-7(microSv/h),Wind Direction,Wind Velocity(m/s),Rain
2015/11/24,00:00,0.477,0.271,0.487,0.451,0.437,0.219,0.188,north,10.0,No
2015/11/24,00:10,0.478,0.272,0.485,0.448,0.439,0.220,0.187,north,10.4,No
2015/11/24,00:20,0.476,0.271,0.487,0.451,0.438,0.219,0.187,north,9.8,No
2015/11/24,00:30,0.479,0.272,0.484,0.448,0.437,0.219,0.188,north,9.3,No
2015/11/24,00:40,0.476,0.272,0.487,0.448,0.440,0.219,0.187,north,9.6,No
2015/11/24,00:50,0.479,0.271,0.485,0.450,0.437,0.218,0.188,north,10.0,No
2015/11/24,01:00,0.475,0.272,0.487,0.449,0.438,0.219,0.188,north,10.3,No
2015/11/24,01:10,0.476,0.271,0.486,0.451,0.438,0.218,0.188,north,10.0,No
2015/11/24,01:20,0.480,0.270,0.486,0.450,0.437,0.219,0.189,north,9.6,No
2015/11/24,01:30,0.476,0.273,0.488,0.451,0.440,0.219,0.188,north,9.3,No
2015/11/24,01:40,0.479,0.272,0.486,0.452,0.436,0.219,0.188,north,9.0,No
2015/11/24,01:50,0.476,0.271,0.488,0.449,0.440,0.220,0.189,north,9.8,No
2015/11/24,02:00,0.480,0.271,0.488,0.452,0.440,0.219,0.188,north,8.5,No
2015/11/24,02:10,0.481,0.272,0.489,0.447,0.438,0.220,0.189,north,8.8,No
2015/11/24,02:20,0.478,0.274,0.490,0.453,0.440,0.220,0.189,north,9.2,No
2015/11/24,02:30,0.483,0.273,0.487,0.451,0.440,0.221,0.189,north,8.7,No
2015/11/24,02:40,0.479,0.273,0.489,0.451,0.441,0.222,0.189,north,8.8,No
2015/11/24,02:50,0.481,0.274,0.488,0.453,0.440,0.221,0.190,north,7.2,No
2015/11/24,03:00,0.480,0.274,0.488,0.449,0.440,0.221,0.190,north,7.7,No
2015/11/24,03:10,0.478,0.272,0.492,0.451,0.438,0.221,0.190,north,7.4,No
2015/11/24,03:20,0.481,0.273,0.485,0.450,0.440,0.221,0.189,north,7.6,No
2015/11/24,03:30,0.479,0.272,0.489,0.449,0.440,0.221,0.190,north,7.3,No
2015/11/24,03:40,0.479,0.274,0.487,0.452,0.439,0.220,0.189,north,9.0,No
2015/11/24,03:50,0.480,0.274,0.487,0.450,0.438,0.221,0.189,north,9.2,No
2015/11/24,04:00,0.479,0.271,0.489,0.452,0.436,0.220,0.189,north-northwest,8.1,No
2015/11/24,04:10,0.480,0.274,0.485,0.451,0.439,0.220,0.188,north,8.6,No
2015/11/24,04:20,0.477,0.272,0.489,0.449,0.439,0.220,0.188,north,8.3,No
2015/11/24,04:30,0.479,0.272,0.487,0.451,0.438,0.220,0.189,north,8.8,No
2015/11/24,04:40,0.480,0.272,0.487,0.448,0.438,0.220,0.187,north-northwest,9.2,No
2015/11/24,04:50,0.477,0.272,0.487,0.450,0.438,0.220,0.188,north,9.0,No
2015/11/24,05:00,0.479,0.272,0.485,0.450,0.439,0.219,0.189,north,10.1,No
2015/11/24,05:10,0.479,0.271,0.489,0.449,0.439,0.220,0.187,north,9.2,No
2015/11/24,05:20,0.480,0.271,0.487,0.451,0.438,0.218,0.188,north,8.9,No
2015/11/24,05:30,0.479,0.272,0.487,0.448,0.440,0.219,0.188,north,8.9,No
2015/11/24,05:40,0.477,0.271,0.486,0.451,0.438,0.221,0.188,north,7.7,No
2015/11/24,05:50,0.480,0.271,0.485,0.450,0.438,0.219,0.188,north,8.3,No
2015/11/24,06:00,0.477,0.272,0.489,0.449,0.437,0.220,0.189,north,9.8,No
2015/11/24,06:10,0.480,0.271,0.485,0.450,0.438,0.218,0.188,north-northwest,9.6,No
2015/11/24,06:20,0.477,0.273,0.487,0.448,0.440,0.219,0.188,north-northwest,8.5,No
2015/11/24,06:30,0.479,0.271,0.487,0.451,0.439,0.219,0.188,north-northwest,8.5,No
2015/11/24,06:40,0.479,0.273,0.486,0.451,0.439,0.219,0.187,north,8.4,No
2015/11/24,06:50,0.477,0.271,0.489,0.454,0.439,0.220,0.187,north,7.7,No
2015/11/24,07:00,0.481,0.271,0.486,0.450,0.438,0.218,0.188,north,7.7,No
2015/11/24,07:10,0.477,0.273,0.489,0.450,0.441,0.220,0.188,north-northwest,9.0,No
2015/11/24,07:20,0.480,0.271,0.485,0.453,0.437,0.218,0.188,north,9.5,No
2015/11/24,07:30,0.480,0.273,0.489,0.449,0.440,0.219,0.188,north-northwest,8.4,No
2015/11/24,07:40,0.480,0.273,0.488,0.450,0.440,0.219,0.189,north,7.4,No
2015/11/24,07:50,0.480,0.271,0.487,0.451,0.439,0.219,0.189,north,8.9,No
2015/11/24,08:00,0.478,0.274,0.489,0.450,0.441,0.220,0.188,north,7.8,No
2015/11/24,08:10,0.480,0.272,0.484,0.451,0.438,0.219,0.189,north,7.4,No
2015/11/24,08:20,0.478,0.275,0.491,0.451,0.440,0.221,0.189,north-northwest,5.4,No
2015/11/24,08:30,0.480,0.272,0.485,0.453,0.438,0.219,0.189,north,5.5,No
2015/11/24,08:40,0.476,0.272,0.490,0.450,0.440,0.219,0.189,north,5.4,No
2015/11/24,08:50,0.481,0.271,0.487,0.454,0.438,0.220,0.188,north,4.1,No
2015/11/24,09:00,0.477,0.273,0.489,0.451,0.441,0.220,0.190,north,3.4,No
2015/11/24,09:10,0.481,0.273,0.486,0.454,0.440,0.219,0.188,north,3.3,No
2015/11/24,09:20,0.478,0.271,0.489,0.449,0.441,0.220,0.189,north,3.0,No
2015/11/24,09:30,0.482,0.272,0.486,0.452,0.442,0.218,0.188,north,2.4,No
2015/11/24,09:40,0.476,0.272,0.490,0.449,0.440,0.219,0.189,north,2.0,No
2015/11/24,09:50,0.480,0.274,0.488,0.453,0.442,0.220,0.188,north,2.6,No
2015/11/24,10:00,0.475,0.272,0.489,0.449,0.440,0.220,0.189,north,2.3,No
2015/11/24,10:10,0.480,0.272,0.486,0.450,0.439,0.219,0.188,north,2.6,No
2015/11/24,10:20,0.476,0.272,0.488,0.450,0.440,0.222,0.189,north,2.3,No
2015/11/24,10:30,0.481,0.272,0.486,0.450,0.434,0.219,0.188,north-northeast,2.3,No
2015/11/24,10:40,0.476,0.272,0.489,0.453,0.441,0.221,0.189,north,1.7,No
2015/11/24,10:50,0.477,0.270,0.486,0.448,0.436,0.219,0.190,north,2.0,No
2015/11/24,11:00,0.479,0.272,0.488,0.454,0.436,0.220,0.189,northeast,3.1,No
2015/11/24,11:10,0.476,0.271,0.485,0.448,0.442,0.219,0.190,northeast,2.3,No
2015/11/24,11:20,0.481,0.273,0.489,0.452,0.437,0.220,0.190,northeast,1.4,No
2015/11/24,11:30,0.477,0.271,0.486,0.452,0.440,0.220,0.188,east-northeast,1.6,No
2015/11/24,11:40,0.481,0.273,0.486,0.449,0.441,0.221,0.190,east-southeast,0.9,No
2015/11/24,11:50,0.479,0.273,0.485,0.454,0.435,0.220,0.190,southeast,2.5,No
2015/11/24,12:00,0.477,0.272,0.484,0.449,0.441,0.220,0.188,east-southeast,2.5,No
2015/11/24,12:10,0.480,0.273,0.489,0.451,0.440,0.220,0.190,southeast,1.1,No
2015/11/24,12:20,0.476,0.272,0.484,0.454,0.437,0.220,0.188,south-southeast,2.7,No
2015/11/24,12:30,0.481,0.274,0.488,0.450,0.443,0.221,0.188,south-southeast,5.3,No
2015/11/24,12:40,0.478,0.272,0.489,0.455,0.439,0.220,0.190,south,5.9,No
2015/11/24,12:50,0.478,0.273,0.484,0.450,0.442,0.221,0.188,south-southeast,6.8,No
2015/11/24,13:00,0.482,0.273,0.489,0.454,0.440,0.220,0.190,south-southeast,6.7,No
2015/11/24,13:10,0.475,0.271,0.485,0.454,0.441,0.221,0.189,south-southeast,5.8,No
2015/11/24,13:20,0.481,0.274,0.484,0.450,0.443,0.218,0.190,south-southeast,5.5,No
2015/11/24,13:30,0.480,0.271,0.490,0.453,0.439,0.221,0.190,south,6.1,No
2015/11/24,13:40,0.479,0.273,0.485,0.452,0.444,0.219,0.190,south,4.3,No
2015/11/24,13:50,0.481,0.274,0.492,0.453,0.438,0.220,0.191,south,4.8,No
2015/11/24,14:00,0.478,0.273,0.488,0.456,0.442,0.220,0.190,south-southeast,4.9,No
2015/11/24,14:10,0.482,0.273,0.488,0.452,0.440,0.221,0.191,south-southwest,3.0,No
2015/11/24,14:20,0.479,0.272,0.489,0.456,0.442,0.221,0.189,west-northwest,3.2,No
2015/11/24,14:30,0.485,0.273,0.487,0.451,0.441,0.220,0.190,west,7.9,No
2015/11/24,14:40,0.478,0.274,0.491,0.455,0.439,0.221,0.190,west-northwest,9.5,No
2015/11/24,14:50,0.483,0.272,0.485,0.453,0.442,0.220,0.190,west-northwest,8.5,No
2015/11/24,15:00,0.479,0.273,0.493,0.452,0.439,0.220,0.189,west-northwest,8.6,No
2015/11/24,15:10,0.482,0.272,0.487,0.455,0.442,0.220,0.191,west-northwest,8.2,No
2015/11/24,15:20,0.481,0.274,0.492,0.452,0.439,0.221,0.189,northwest,6.4,No
2015/11/24,15:30,0.480,0.272,0.488,0.457,0.444,0.221,0.190,northwest,9.5,No
2015/11/24,15:40,0.481,0.274,0.492,0.451,0.438,0.221,0.190,northwest,7.8,No
2015/11/24,15:50,0.481,0.272,0.490,0.458,0.444,0.221,0.190,north-northwest,6.5,No
2015/11/24,16:00,0.483,0.275,0.494,0.452,0.440,0.221,0.191,north-northwest,5.7,No
2015/11/24,16:10,0.481,0.273,0.490,0.457,0.445,0.220,0.191,north-northwest,7.6,No
2015/11/24,16:20,0.482,0.274,0.493,0.454,0.440,0.223,0.190,north-northwest,6.8,No
2015/11/24,16:30,0.483,0.273,0.488,0.457,0.446,0.220,0.190,northwest,6.8,No
2015/11/24,16:40,0.484,0.274,0.494,0.454,0.441,0.221,0.191,north-northwest,7.6,No
2015/11/24,16:50,0.483,0.273,0.489,0.455,0.444,0.221,0.190,north-northwest,5.9,No
2015/11/24,17:00,0.483,0.275,0.494,0.456,0.442,0.222,0.191,north-northwest,4.5,No
2015/11/24,17:10,0.482,0.274,0.489,0.454,0.440,0.221,0.191,north-northwest,7.2,No
2015/11/24,17:20,0.481,0.273,0.491,0.456,0.443,0.221,0.191,north-northwest,9.2,No
2015/11/24,17:30,0.485,0.275,0.491,0.455,0.439,0.221,0.191,north-northwest,8.9,No
2015/11/24,17:40,0.480,0.272,0.492,0.457,0.443,0.221,0.191,north-northwest,10.0,No
2015/11/24,17:50,0.484,0.274,0.491,0.456,0.443,0.222,0.190,north-northwest,9.0,No
2015/11/24,18:00,0.483,0.274,0.491,0.456,0.442,0.220,0.191,north,6.4,No
2015/11/24,18:10,0.484,0.273,0.493,0.456,0.442,0.220,0.190,north,6.3,No
2015/11/24,18:20,0.486,0.274,0.491,0.455,0.441,0.221,0.190,north,9.0,No
2015/11/24,18:30,0.482,0.274,0.493,0.456,0.442,0.220,0.191,north,8.1,No
2015/11/24,18:40,0.484,0.274,0.491,0.455,0.444,0.222,0.191,north-northwest,6.7,No
2015/11/24,18:50,0.483,0.275,0.492,0.456,0.441,0.221,0.190,northwest,5.1,No
2015/11/24,19:00,0.485,0.275,0.494,0.457,0.441,0.221,0.191,north-northwest,4.8,No
2015/11/24,19:10,0.484,0.273,0.490,0.453,0.439,0.221,0.191,north,4.5,No
2015/11/24,19:20,0.483,0.276,0.493,0.456,0.440,0.221,0.191,north,7.1,No
2015/11/24,19:30,0.484,0.273,0.489,0.454,0.441,0.221,0.192,north,8.7,No
2015/11/24,19:40,0.482,0.274,0.491,0.455,0.439,0.221,0.192,north-northwest,8.9,No
2015/11/24,19:50,0.483,0.274,0.493,0.457,0.440,0.222,0.191,north-northwest,7.9,No
2015/11/24,20:00,0.484,0.273,0.491,0.456,0.441,0.221,0.191,north-northwest,7.3,No
2015/11/24,20:10,0.483,0.275,0.493,0.455,0.440,0.222,0.193,north-northwest,6.3,No
2015/11/24,20:20,0.485,0.273,0.492,0.457,0.440,0.221,0.191,north-northwest,6.2,No
2015/11/24,20:30,0.482,0.273,0.491,0.455,0.441,0.221,0.193,northwest,6.3,No
2015/11/24,20:40,0.482,0.275,0.493,0.456,0.441,0.221,0.191,northwest,7.1,No
2015/11/24,20:50,0.486,0.274,0.490,0.456,0.442,0.221,0.193,northwest,7.6,No
2015/11/24,21:00,0.482,0.275,0.491,0.454,0.441,0.221,0.192,northwest,7.2,No
2015/11/24,21:10,0.484,0.276,0.494,0.456,0.439,0.222,0.191,northwest,6.7,No
2015/11/24,21:20,0.485,0.273,0.492,0.456,0.442,0.221,0.192,northwest,5.7,No
2015/11/24,21:30,0.482,0.274,0.493,0.454,0.440,0.222,0.192,north-northwest,5.5,No
2015/11/24,21:40,0.486,0.275,0.492,0.455,0.439,0.222,0.192,north-northwest,7.0,No
2015/11/24,21:50,0.483,0.274,0.490,0.455,0.440,0.222,0.191,northwest,8.1,No
2015/11/24,22:00,0.482,0.273,0.493,0.455,0.440,0.221,0.191,northwest,8.7,No
2015/11/24,22:10,0.486,0.275,0.492,0.457,0.440,0.222,0.192,northwest,8.6,No
2015/11/24,22:20,0.482,0.273,0.492,0.455,0.441,0.221,0.193,northwest,7.8,No
2015/11/24,22:30,0.485,0.274,0.494,0.457,0.441,0.223,0.191,north-northwest,7.7,No
2015/11/24,22:40,0.485,0.274,0.491,0.456,0.439,0.220,0.192,north-northwest,7.3,No
2015/11/24,22:50,0.484,0.275,0.492,0.455,0.442,0.221,0.191,north-northwest,6.8,No
2015/11/24,23:00,0.485,0.274,0.492,0.456,0.441,0.222,0.192,north-northwest,6.9,No
2015/11/24,23:10,0.486,0.275,0.491,0.456,0.439,0.222,0.191,north-northwest,6.0,No
2015/11/24,23:20,0.483,0.274,0.495,0.454,0.441,0.222,0.192,north-northwest,6.1,No
2015/11/24,23:30,0.486,0.274,0.492,0.458,0.440,0.222,0.192,north-northwest,8.7,No
2015/11/24,23:40,0.484,0.276,0.492,0.457,0.440,0.221,0.193,north-northwest,9.8,No
2015/11/24,23:50,0.482,0.274,0.494,0.455,0.441,0.222,0.192,north-northwest,12.3,No
